sat.trackr.live / text

‹ back to catalog

STARLINK-2404

NORAD 48093 · 2021-027B

PAYLOAD ACTIVE UNKNOWN

§ Identity

Operator
Country
US
Launch date
2021-04-07
Launch site
AFETR
Launch vehicle
Mass (kg)
RCS (m²)

Purposes: comms

External: N2YO · Heavens-Above · Gunter

§ Orbital elements

Epoch: 2026-09-20T04:36:08.020800Z

Period
94.01 min
Inclination
53.1600°
Eccentricity
0.0001301
Mean motion
15.31700818 rev/d
Perigee alt
469.8 km
Apogee alt
471.6 km
Semi-major
6,848.9 km
B*
5.0967e-5
RAAN
329.7569°
Arg perigee
79.2012°
Mean anomaly
280.9136°
Rev number
30,246

§ Raw data

STARLINK-24041 48093U 21027B   26263.19175950  .00001217  00000+0  50967-4 0  99932 48093  53.1600 329.7569 0001301  79.2012 280.9136 15.31700818302466

JSON: /api/v1/satellites/48093 · /tle

For live sub-satellite position, see the globe view (requires WebGL).

§ Visibility from observer

Set your observer location to see the next 7 days of passes ≥ 10°. The values pass through the URL so the page stays shareable.

No JS? Fill the form by hand. The geolocation button needs JavaScript.